Dewpoint
55 59 61 66 69 69 69 69 69 69 69 69 69 69 69 68 66 65 64 63 64 66 63 60 63 64 65 65 65 63 65 65 65 64 65 63 63 62 64 64 63 62 65
55 58 61 65 68 69 69 69 70 69 68 69 69 69 69 67 66 65 64 63 63 63 64 61 63 64 65 66 66 65 65 65 64 65 65 64 64 63 64 65 64 62 64
59 60 61 64 68 68 69 70 70 69 68 69 70 69 68 67 66 65 64 63 62 64 62 64 64 65 66 66 67 67 66 66 65 65 65 62 61 63 63 65 66 64 63
61 62 62 64 67 68 69 70 69 69 69 70 70 70 69 67 65 65 64 63 63 64 65 64 64 66 66 66 67 67 66 66 66 65 64 63 64 64 62 63 61 62 64
59 63 65 65 67 68 68 69 69 69 69 69 69 69 68 67 65 64 64 64 64 66 65 64 64 66 65 65 66 67 67 67 66 64 64 64 65 64 63 63 62 63 64
56 58 63 66 67 67 67 68 68 69 69 69 69 68 68 67 66 64 64 64 64 66 64 64 65 65 64 64 66 67 66 65 64 63 61 60 60 62 60 61 61 62 63
52 54 62 66 66 66 66 66 67 68 69 69 69 68 68 67 66 65 64 64 64 65 63 63 65 65 63 61 66 66 66 64 63 62 62 61 60 62 60 62 61 61 61
50 51 54 61 66 66 66 67 67 68 68 67 67 68 68 67 67 66 65 65 64 63 63 63 64 64 64 62 63 65 64 63 62 62 63 61 62 61 61 62 62 62 62
49 49 49 53 55 60 62 63 65 65 66 66 66 68 68 67 67 66 67 66 64 64 64 64 63 63 63 63 63 62 63 63 63 63 63 61 62 61 62 62 62 62 62
47 48 48 48 52 51 52 57 58 59 61 61 61 60 61 61 65 67 68 67 66 66 66 65 64 63 63 63 62 61 61 62 62 64 64 63 63 61 62 62 62 62 62
45 45 47 48 49 50 50 50 51 51 52 53 54 54 54 54 56 58 63 66 67 67 67 66 65 63 63 63 61 61 61 61 61 62 64 64 63 62 63 63 62 62 62
43 44 46 46 47 48 49 49 49 49 48 46 48 49 51 51 52 52 53 55 60 65 64 67 65 63 62 62 62 58 58 61 63 63 63 64 63 63 64 63 63 63 62
42 42 43 44 45 46 46 47 48 48 48 48 46 47 47 48 49 49 50 49 51 53 60 63 65 64 63 63 62 62 57 58 61 63 64 63 64 63 64 64 63 63 62
41 41 42 43 44 44 45 45 44 46 47 46 47 47 46 46 45 45 45 44 46 51 53 54 58 58 59 62 63 61 58 58 59 62 63 64 64 63 63 64 64 63 62
39 40 41 42 42 43 43 43 43 43 43 45 45 46 47 46 44 43 43 43 41 42 45 52 53 52 52 55 59 60 58 58 59 60 61 62 63 65 64 63 64 64 63
36 37 40 40 41 41 42 42 42 42 42 42 43 45 45 46 46 44 41 42 41 39 39 44 48 53 51 51 52 53 55 58 59 59 59 59 60 60 62 64 64 64 64
31 33 35 38 39 39 39 40 40 41 41 41 41 43 44 44 44 45 44 42 41 39 38 39 40 48 51 48 47 46 46 48 51 54 56 57 59 59 60 61 64 64 64
26 27 31 34 36 37 37 38 38 39 39 40 40 41 42 42 43 43 43 43 44 41 39 39 38 41 45 47 47 47 45 43 42 45 49 52 54 56 58 60 61 62 63
24 25 28 32 33 34 34 35 35 36 37 39 40 40 41 41 41 41 42 42 43 43 41 40 39 38 37 38 38 40 45 44 39 37 42 46 49 52 53 56 60 61 61
22 24 27 30 31 32 32 32 32 33 35 37 38 39 39 40 40 40 40 40 41 41 41 42 42 42 40 40 35 33 36 37 37 32 34 41 47 53 55 57 62 61 62
21 21 24 26 27 26 25 24 25 26 30 33 35 36 37 38 39 39 39 39 39 39 39 40 42 42 41 41 39 34 38 40 40 41 36 46 44 42 42 48 61 60 57
19 19 20 21 23 23 23 25 24 24 28 30 32 33 34 36 38 38 39 38 38 38 38 38 39 40 41 41 41 40 35 40 39 34 34 33 32 35 39 46 50 52 52
18 18 19 20 20 22 23 22 22 24 24 24 26 29 32 33 35 36 37 38 37 38 37 37 37 37 38 39 40 40 37 36 40 38 31 29 29 33 38 42 42 44 44
20 19 20 21 20 19 20 18 15 16 17 21 25 26 29 30 31 34 35 36 36 36 36 37 37 37 37 35 38 38 39 35 35 37 33 27 31 33 35 36 36 37 37
19 20 21 20 21 21 19 18 18 17 20 22 22 23 24 26 28 28 30 32 34 35 35 35 36 36 36 36 35 35 35 37 35 33 36 29 29 31 31 32 33 34 34
20 19 19 18 18 20 19 18 17 17 18 18 19 19 21 22 23 25 26 27 27 30 32 34 35 36 36 35 35 34 34 33 32 33 34 32 28 29 30 30 29 30 32
Wind_Speed
5 3 3 5 5 10 15 13 12 15 20 22 22 22 21 19 18 17 17 17 15 16 17 17 14 16 14 14 15 16 17 17 17 17 15 15 15 16 16 17 15 18 19
5 3 5 4 4 11 17 15 12 13 19 20 21 21 20 18 18 17 17 17 17 17 17 15 15 13 14 16 16 17 16 17 16 14 12 14 15 15 16 17 16 18 18
2 5 5 5 2 10 15 15 14 13 19 20 21 22 21 18 18 17 17 16 16 16 16 17 14 13 17 16 15 16 16 15 13 11 10 12 15 16 17 17 18 19 19
2 5 5 5 3 9 15 15 15 14 17 19 20 21 20 19 18 17 16 17 15 16 17 14 13 14 16 15 15 16 15 15 13 11 12 11 12 17 18 18 19 19 18
6 5 6 7 5 9 15 15 15 16 16 16 17 19 19 19 18 17 16 16 14 15 16 13 12 15 14 13 14 15 14 14 12 12 13 14 15 18 19 18 17 19 18
9 10 8 9 7 11 14 14 15 16 15 15 14 16 18 19 19 19 17 15 14 14 14 13 14 14 13 12 13 14 13 13 12 11 11 12 15 17 17 18 17 18 18
11 14 17 5 6 10 12 13 12 15 16 17 16 14 16 18 18 18 18 16 16 15 14 13 14 14 12 12 12 12 12 12 11 12 12 12 14 15 15 16 17 16 17
12 14 14 23 18 5 9 10 11 13 14 15 14 13 14 17 19 18 16 16 16 17 15 13 13 14 13 13 12 11 11 10 10 11 10 11 12 13 14 15 15 16 16
13 14 16 16 17 22 24 23 20 7 9 10 14 14 12 15 17 17 15 14 15 15 14 13 12 12 12 11 11 10 10 9 9 8 8 9 11 13 13 13 14 15 15
13 15 16 17 11 16 18 21 21 22 21 20 18 18 19 19 14 11 11 12 13 13 13 12 12 11 11 10 11 11 11 9 7 6 5 7 11 12 13 12 12 13 14
13 14 15 14 15 12 14 15 15 17 17 14 16 17 16 13 12 12 10 9 8 11 11 10 11 11 10 9 9 10 8 6 7 5 3 3 10 10 11 11 11 12 13
11 12 12 12 13 13 8 14 15 12 15 12 12 15 13 12 12 10 11 12 10 7 7 5 10 9 7 5 6 8 5 6 6 5 3 5 10 8 9 9 10 10 11
9 10 11 10 12 12 11 9 12 7 13 10 13 15 13 12 11 10 9 11 9 11 3 2 7 5 6 5 5 6 7 6 6 6 5 5 8 7 8 7 8 8 9
11 9 9 10 11 12 10 12 9 11 14 7 13 15 12 11 13 11 10 10 11 10 9 5 2 4 4 5 6 6 10 7 7 5 6 5 6 6 7 6 6 6 7
11 8 8 11 10 10 13 10 9 11 10 7 13 12 13 11 10 9 9 9 9 10 11 9 6 2 3 2 3 5 9 8 7 6 5 5 5 5 4 4 5 4 4
9 7 7 10 10 10 12 12 11 6 9 12 10 13 12 12 8 8 8 9 10 10 10 8 6 5 3 4 5 5 5 5 5 5 5 4 4 3 2 3 2 2 2
8 7 8 9 9 11 11 10 9 8 10 15 12 12 9 10 10 8 7 8 8 9 10 10 9 6 4 3 5 5 5 5 5 4 3 3 3 3 2 2 3 5 6
10 10 10 9 9 11 10 8 9 12 8 10 13 9 10 10 13 10 7 8 8 7 9 9 10 6 5 6 4 4 3 3 4 4 3 3 4 3 2 2 1 3 4
9 9 10 10 11 10 9 9 9 8 11 9 10 10 7 11 10 12 6 8 7 7 7 7 8 8 8 8 5 4 4 3 3 3 3 3 4 3 3 3 4 7 5
10 10 10 10 10 9 8 9 9 10 9 10 8 8 8 8 10 9 6 8 8 5 6 5 8 10 7 9 5 4 4 4 2 2 1 2 3 3 3 3 6 11 15
10 10 9 9 6 5 5 5 6 6 8 8 7 8 10 9 8 7 6 8 10 6 6 6 5 9 11 11 3 5 6 9 8 5 2 4 6 6 7 7 6 6 11
7 8 8 8 6 6 5 3 3 4 7 8 7 9 10 8 5 6 7 8 8 3 5 7 7 4 3 13 4 3 4 4 8 14 10 8 8 6 9 10 10 11 10
7 7 7 6 7 7 5 7 6 6 5 4 6 7 7 8 6 7 8 7 6 3 5 6 8 7 7 5 7 2 4 3 2 4 11 10 10 8 9 10 12 12 13
4 5 7 7 7 6 4 6 5 4 5 3 6 7 7 7 7 5 6 7 5 3 6 5 6 6 5 7 2 3 2 5 6 3 4 6 9 10 10 9 11 12 11
5 5 6 7 8 6 5 5 6 7 7 7 8 9 8 8 8 6 6 8 6 3 5 5 3 8 6 4 1 3 1 4 3 1 4 3 5 7 8 9 9 11 12
6 8 7 8 9 8 7 7 6 9 9 9 7 8 7 6 6 6 7 7 7 5 4 4 2 4 8 6 1 4 5 4 3 1 2 3 3 3 6 8 8 9 10
Wind_Direction
210 262 323 316 346 185 148 144 141 141 132 134 135 137 136 134 131 127 124 123 121 117 113 111 101 92 89 92 91 83 82 80 77 76 70 66 68 70 68 65 58 59 53
291 279 295 298 341 182 153 148 145 144 140 138 138 140 137 136 133 131 128 128 128 125 118 115 103 101 102 98 90 93 90 84 80 74 77 83 77 72 65 67 62 63 54
313 300 281 289 307 179 156 147 140 146 145 144 144 144 141 140 135 133 131 130 131 124 120 103 104 101 110 97 90 98 93 88 83 73 67 79 83 77 68 60 58 62 59
17 303 262 263 282 180 160 145 141 143 143 149 150 146 143 140 137 133 133 132 134 123 111 109 106 108 105 101 96 102 96 91 84 72 76 79 77 82 74 67 67 60 54
41 5 270 251 246 171 167 154 147 144 144 147 151 150 145 140 136 132 134 131 131 119 116 111 112 116 109 104 102 104 100 95 87 84 77 73 74 79 73 65 66 63 59
38 24 315 229 218 172 165 158 152 143 144 145 148 152 148 143 138 137 132 128 128 125 123 114 115 116 111 107 107 105 102 98 93 85 80 77 76 76 76 73 60 60 59
41 36 17 201 193 165 160 159 152 142 143 136 136 143 157 146 138 136 134 133 137 135 129 121 122 119 109 108 113 106 100 95 97 89 83 81 82 84 77 74 72 69 63
53 32 25 52 65 101 160 159 153 141 140 136 131 131 150 150 137 137 136 135 139 139 133 124 125 126 117 109 111 104 97 92 93 91 87 88 86 79 75 77 76 72 68
49 45 33 41 62 65 66 68 72 115 133 107 123 77 108 146 139 140 139 138 138 137 132 126 122 121 123 120 114 118 108 94 94 89 89 88 86 86 82 78 76 74 70
44 46 37 30 33 73 61 62 64 71 73 75 76 65 69 55 67 86 143 144 139 134 131 131 129 125 117 124 122 123 116 108 103 98 89 92 88 88 86 82 79 76 71
51 35 44 29 28 40 74 65 52 61 62 62 66 68 64 56 44 46 47 91 125 135 128 132 131 129 120 113 135 127 124 118 115 104 103 108 103 91 88 85 80 77 75
56 40 43 39 38 36 41 80 67 49 54 41 65 67 63 60 49 44 34 37 45 115 114 136 138 134 137 134 124 144 127 131 125 118 100 53 105 100 94 88 83 78 76
81 54 40 54 49 53 42 41 80 51 66 32 53 65 68 56 38 38 33 24 26 23 83 134 145 161 166 161 157 158 151 139 133 130 110 70 93 103 100 94 89 84 79
83 61 36 43 51 55 58 49 45 59 83 59 62 56 50 66 52 31 34 28 26 14 18 17 154 161 178 184 178 165 167 149 140 136 124 102 95 103 104 105 97 89 83
84 66 50 49 46 56 61 47 44 62 55 52 73 57 73 46 52 61 33 35 38 22 15 4 5 52 105 134 151 145 163 152 148 143 128 99 91 87 108 119 118 111 102
82 74 59 61 53 59 64 61 38 69 60 57 55 77 65 67 47 29 51 35 24 19 360 10 7 7 10 77 88 89 96 106 122 137 138 127 96 82 74 54 99 113 128
86 91 84 66 68 66 66 60 65 31 62 70 41 43 68 104 75 47 32 44 30 16 13 10 15 14 22 25 76 67 73 73 85 97 105 112 114 80 47 27 55 56 42
91 79 72 85 76 77 73 68 63 51 46 59 81 40 34 50 87 69 45 35 13 22 34 21 21 28 21 29 10 2 26 39 51 39 45 50 58 29 26 34 106 66 45
83 87 84 84 85 91 92 88 85 84 64 51 59 72 46 49 61 86 66 54 28 35 33 49 30 34 26 3 351 346 334 339 354 14 20 35 37 27 360 348 84 79 62
74 81 83 82 87 90 95 96 85 77 71 65 68 72 67 68 62 68 78 69 55 46 39 38 76 40 35 352 330 328 357 346 344 335 351 10 40 22 21 349 117 81 63
67 77 80 92 89 92 71 78 76 84 91 82 78 74 71 68 58 87 75 75 66 55 58 30 72 67 28 360 7 52 66 40 33 24 27 60 52 35 53 39 84 97 75
73 73 80 85 80 65 72 86 105 122 93 97 88 78 77 71 67 71 79 71 74 65 58 60 67 110 82 25 46 62 56 25 32 20 14 54 48 40 51 55 61 59 70
69 62 73 73 73 76 97 105 104 106 106 89 79 79 79 83 71 74 79 80 79 82 75 66 67 82 86 52 44 51 141 105 52 5 9 30 44 45 49 62 67 67 65
73 77 75 65 64 58 73 104 96 116 126 105 109 98 88 96 92 87 88 87 71 56 86 61 83 86 114 101 69 57 123 101 64 64 187 23 49 45 51 62 69 64 62
68 67 64 69 55 43 67 94 109 104 103 112 108 103 91 81 87 93 106 108 100 101 72 73 67 89 59 103 79 112 328 96 96 297 15 352 53 37 53 58 64 67 58
80 76 67 66 59 48 64 71 95 119 127 119 118 111 105 92 73 65 79 83 96 94 103 106 57 93 111 108 184 189 157 148 120 93 262 298 342 360 49 64 60 62 60